Regional Weather Roundup
Issued by NWS Wakefield, VA

Home | Current Version | Previous Version | Text Only | Print | Product List | Glossary On
Versions: 1 2 3 4 5 6 7 8 9 10 11 12 13 14 15 16 17 18 19 20 21 22 23 24 25 26 27 28 29 30 31 32 33 34 35 36 37 38 39 40 41 42 43 44 45 46 47 48 49
000
ASUS41 KAKQ 140815
RWRAKQ

REGIONAL WEATHER ROUNDUP
NATIONAL WEATHER SERVICE WAKEFIELD VA
300 AM EST SUN FEB 14 2016

Note: "fair" indicates few or no clouds below 12,000 feet with no
significant weather and/or obstructions to visibility. * = Denotes
station may not report precipitation (e.g., rain,snow,etc.),
thunder or fog.

VAZ042-051-052>054-056-140900-
NORTHERN VIRGINIA

CITY           SKY/WX    TMP DP  RH WIND       PRES   REMARKS
WASH NATIONAL  FAIR      14  -3  47 NW8       30.48R
DULLES         FAIR      11  -3  53 NW10      30.45S WCI  -3
FORT BELVOIR   FAIR      13  -4  46 W5        30.48S
QUANTICO       FAIR      15  -4  42 NW7       30.51R
FREDERICKSBRG* FAIR      11   1  62 NW3       30.48S
STAFFORD*      FAIR      11  -2  55 CALM      30.52R
WARRENTON      FAIR      10   4  76 NW6       30.45S
CULPEPER*      FAIR      13  -4  45 W3        30.47S
MANASSAS*      FAIR      12   0  57 NW8       30.47R
LEESBURG*      FAIR      14   3  62 MISG      30.45R
WINCHESTER     FAIR      12   1  62 NW6       30.41S
FRONT ROYAL*   FAIR      12  -4  48 NW9       30.40F
LURAY*         PTSUNNY   12  -4  48 CALM      30.41S
$$

VAZ048-049-060>072-079>083-140900-
CENTRAL AND SOUTH CENTRAL VIRGINIA

CITY           SKY/WX    TMP DP  RH WIND       PRES   REMARKS
RICHMOND       FAIR      12  -1  56 N5        30.47F
CHESTERFIELD*  FAIR      12  -9  37 N6        30.47F
PETERSBURG*    FAIR      16  -6  36 N6        30.47F
HANOVER        FAIR      10  -1  61 NW3       30.48F
TAPPAHANNOCK*  FAIR      14  -4  43 CALM      30.49R
QUINTON*       FAIR      11  -1  59 CALM      30.48S
CHARLOTTSVILLE FAIR       9  -4  55 CALM      30.43F
GORDONSVILLE*  FAIR       9  -1  63 CALM      30.44S
ORANGE*        FAIR      14  -4  44 CALM      30.47S
LOUISA*        FAIR       5   0  78 CALM      30.43S
BUMPASS*       FAIR       9   0  67 CALM      30.46S
FARMVILLE*     FAIR      12   2  64 CALM      30.45R
CREWE*         FAIR      11  -3  52 CALM      30.45S
FORT PICKETT*  FAIR      12  -4  48 N6        30.44S
CHASE CITY*    FAIR      11   0  59 CALM      30.44S
CLARKSVILLE*   FAIR      18  -4  38 CALM      30.45R
SOUTH HILL*    FAIR      11  -1  58 CALM      30.50S
LAWRENCEVILLE* FAIR      14  -2  50 CALM      30.45S
EMPORIA*       FAIR      14   1  57 NW7       30.48F
$$

VAZ088>098-140900-
SOUTHEAST VIRGINIA

CITY           SKY/WX    TMP DP  RH WIND       PRES   REMARKS
NORFOLK        FAIR      19  -5  34 N21G33    30.46S WCI   3
VIRGINIA BEACH FAIR      21  -1  38 NW20      30.45R WCI   6
NORFOLK NAVAL  FAIR      19  -3  38 N21G31    30.48R WCI   3
WEST POINT*    FAIR      14  -2  47 N3        30.50F
SALUDA*        FAIR      16  -4  41 NW18G28   30.47S WCI   0
NEWPORT NEWS   FAIR      16  -3  43 N9        30.47S
LANGLEY AFB    FAIR      16  -5  39 N15G23    30.46S WCI   2
FORT EUSTIS    FAIR      17  -3  43 N10G18    30.46S WCI   4
WILLIAMSBURG*  FAIR      18   1  49 N7        30.48F
HR EXEC AP*    FAIR      18  -2  41 N5        30.48S
FRANKLIN*      FAIR      16  -4  41 N5        30.48S
US460-WAKEFLD  FAIR      15  -2  46 N3        30.47F
$$

VAZ020-022-025-037-045-140900-
WEST CENTRAL AND SOUTHWEST VIRGINIA

CITY           SKY/WX    TMP DP  RH WIND       PRES   REMARKS
STAUNTON*      FAIR      10   0  64 CALM      30.40S
WAYNESBORO*    FAIR       8  -8  48 CALM      30.35F
HOT SPRINGS VA FAIR      -1  -8  72 NW10G20   30.08R WCI -17
LYNCHBURG      FAIR       9  -4  55 CALM      30.43R
DANVILLE       FAIR      14   0  53 NE6       30.46R
SOUTH BOSTON*  FAIR      13  -3  48 CALM      30.46R
MARTINSVILLE   FAIR       7   0  73 N6        30.45S
ROANOKE        FAIR      11  -5  48 NW5       30.43R
BLACKSBURG     FAIR       7  -2  65 CALM      30.35S
DUBLIN*        FAIR      10  -2  59 N3        30.35R
MARION*        FAIR       8  -2  63 W3        30.32R
HILLSVILLE*    FAIR       8  -2  65 W3        30.26R
RICHLANDS*     FAIR       7  -5  56 CALM      30.28S
WISE*          FAIR      10   0  61 CALM      30.29S
ABINGDON*      FAIR      10   1  68 CALM      30.33S
$$

MDZ021>025-VAZ099-100-140900-
SOUTHERN MARYLAND AND THE DELMARVA PENINSULA

CITY           SKY/WX    TMP DP  RH WIND       PRES   REMARKS
PATUXENT RIVER PTCLDY    14  -4  44 NW14G20   30.46S WCI  -1
BAY BRIDGE APT   N/A     16  -2  45 NW12G21   30.45S WCI   3
LEONARDTOWN    CLEAR     14  -6  41 CALM      30.48
DOVER          CLEAR     13  -6  42 W14G25    30.40S WCI  -2
GEORGETOWN     CLEAR     13  -6  42 NW6       30.42S
EASTON         PTCLDY    15  -1  48 NW16G22   30.47S WCI  -1
CAMBRIDGE      PTCLDY    14   0  52 NW12G17   30.44S WCI   0
SALISBURY      CLEAR     14  -3  47 NW13      30.43S WCI   0
OCEAN CITY     CLEAR     14  -5  42 NW12      30.43R WCI   0
WALLOPS ISLAND FAIR      15  -3  44 NW15      30.45R WCI   0
ACCOMACK*      CLOUDY    18   0  45 NW15      30.44S WCI   3
$$

NCZ012>017-030>032-140900-
NORTH CENTRAL AND EASTERN NORTH CAROLINA

CITY           SKY/WX    TMP DP  RH WIND       PRES   REMARKS
ROANOKE RAPIDS FAIR      18   0  45 N5        30.46S
RALEIGH        CLEAR     18  -1  43 CALM      30.45R
ELIZABETH CITY PTCLDY    19   2  47 N14       30.45S WCI   6
AHOSKIE*       CLEAR     17  -2  44 N7        30.47S
EDENTON*       PTCLDY    20   1  44 N9        30.46S
CURRITUCK*     PTCLDY    19   1  45 N8        30.46S
KILL DEVIL HLS PTCLDY    20   5  50 NW9       30.41F
MANTEO         PTCLDY    21   6  52 N15G25    30.43S WCI   8
CAPE HATTERAS  CLEAR     25   9  50 N9G21     30.40S
TARBORO*       FAIR      19   2  46 N5        30.47S
GOLDSBORO      PTCLDY    21  -2  35 N7        30.44R
WASHINGTON     CLEAR     19   2  47 N7        30.45R
GREENVILLE     PTCLDY    21   3  45 N3        30.45R
NEW BERN       CLEAR     22   5  48 N8        30.44R
WILMINGTON     CLEAR     24   6  46 N6        30.43S
$$

VAZ048-140900-
ELSEWHERE

CITY           SKY/WX    TMP DP  RH WIND       PRES   REMARKS
HARRISBURG PA  PTCLDY    10  -4  53 NW15      30.40R WCI  -7
BALTIMORE      PTCLDY    11  -4  51 NW6       30.44R
ANNAPOLIS      CLEAR     14   0  53 W7        30.45S
ANDREWS AFB    FAIR      13  -3  49 NW16      30.43S WCI  -4
PHILADELPHIA   PTCLDY    12 -11  35 NW13      30.41R WCI  -3
HENDERSON NC   CLEAR     15  -4  41 NW3       30.44R
GREENSBORO     PTCLDY    16  -1  47 CALM      30.41R
ROCKY MOUNT    PTCLDY    19   0  43 N8        30.46S
$$

VAZ100-140900-
MARINE

STATION/POSITION TIME  TEMP    WIND        PRES    WAVE   SWELL
                       AIR SEA DIR/SP/G            HT/PER HT/PER
                 (UTC) (F)     (DEG/KT/KT) (MB)    (FT/S) (FT/S)
BRANDYWINE LGT   0700   15     330/ 18/ 29 1029.2R
CAPE MAY NJ      0700   17 33  320/ 10/ 19 1028.9R
LEWES DE         0700   16 33  310/ 23/ 28 1029.7R
15NM E FENWICK I 0750   18 43              1029.1R   7/ 6
OCEAN-CITY-INLET 0700   17 39  330/ 15/ 21 1029.3R
WACHAPREAGUE VA  0700   17 34  300/  5/ 10 1030.7R
THOMAS POINT MD  0800   14 35  310/ 13/ 16 1031.9
GOOSES REEF MD   0800   17 36  320/ 17/ 23 1032.3R   3/ 4
COVE POINT MD    0700   15     340/ 16/ 24 1031.9R
SOLOMONS ISLAND  0700   16 37  330/ 16/ 22   N/A
BISHOPS HEAD MD  0706   16 30  320/ 15/ 21 1030.4R
PINEY POINT MD   0700          350/ 22/ 28   N/A
POTOMAC MD       0800   17 36  330/ 17/ 21 1031.0R   3/ 3
CAMBRIDGE MD     0700   17 34  320/ 18/ 26 1030.2S
LEWISETTA VA     0700   17 33  330/ 14/ 19 1031.7R
RAPPAHANNOCK LGT 0700          330/ 23/ 27 1031.3R
STINGRAY PT      0800   18 38  320/ 17/ 21 1032.0R   2/ 3
YORK RVR RNG VA  0700   19     340/ 19/ 25 1031.0R
YORKTOWN VA      0700   18 40  340/ 13/ 16 1031.7R
JAMESTOWN VA     0800   16 39  360/  6/  8   N/A     0
DOMINION TERM VA 0700   18      10/  3/ 16 1031.5S
KIPTOPEKE VA     0700      36  360/ 19/ 30   N/A
CHES BAY BRIDGE  0700   21 39  320/ 24/ 31 1031.0R
CAPE HENRY VA    0700   20     340/ 24/ 34   N/A
CHESAPEAKE LGHT  0700   19     340/ 24/ 29 1031.0R
WILLOUBY STN VA  0700   18     350/ 18/ 21 1032.2R
CAPE HENRY BUOY  0728      42                N/A     6/ 4
1ST LANDING BUOY 0800      40                N/A     4/ 4
CAPE CHARLES BUO 0756      41                N/A     4/ 4   2/11
OFFSHORE WE BUOY 0721      45                N/A     7/ 6   2/11
64NM E OF VA BCH 0750   24 49  330/ 21/ 29 1029.2R   8/ 7   3/ 8
DUCK PIER NC     0700   22     330/ 20/ 23 1029.7S
44100 DUCK FRF   0724      45                N/A     8/ 7
44056 DUCK FRF   0711      42                N/A     5/ 6
OREGON INLET NC  0700   22 38  320/ 12/ 16 1030.0S
HATTERAS NC      0700   27 41  350/ 23/ 27 1028.8R
DIAMOND SHLS NC  0750   31 72  360/ 23/ 29 1028.4R   5/ 5   2/11
$$



USA.gov is the U.S. government's official web portal to all federal, state and local government web resources and services.